period_start,C,m1,H,J0,J1,J2,J3,J4,J5,JA,JB,JC,JD,JJ,JK,JN,#
2016-06-19 00:00:43,0.01,4.14,0.00,19.60,25.35,28.74,14.75,46.90,1013.86,2044.02,2440.88,2092.11,2381.00,600.43,601.78,21.58,0000 0000 0000 0000 000000
2016-06-19 00:05:44,0.02,4.14,0.00,19.63,25.37,28.60,14.80,46.76,1013.73,2044.02,2440.39,2092.01,2380.94,600.28,601.32,21.63,0000 0000 0000 0000 000000
2016-06-19 00:10:45,0.02,4.14,0.00,19.65,25.40,28.83,14.71,46.74,1013.70,2044.00,2440.03,2091.99,2380.45,600.02,601.14,21.68,0000 0000 0000 0000 000000
2016-06-19 00:15:47,0.00,4.14,0.00,19.67,25.42,28.79,14.66,46.59,1013.70,2044.00,2439.99,2091.94,2380.01,599.84,600.93,21.73,0000 0000 0000 0000 000000
2016-06-19 00:20:48,0.04,4.14,0.00,19.69,25.45,28.73,14.69,46.62,1013.69,2044.00,2439.56,2091.54,2379.99,600.21,601.12,21.78,0000 0000 0000 0000 000000
2016-06-19 00:25:49,0.02,4.14,0.00,19.73,25.48,28.75,14.72,46.75,1013.69,2043.99,2439.03,2091.05,2379.89,599.96,600.75,21.83,0000 0000 0000 0000 000000
2016-06-19 00:30:51,0.02,4.14,0.00,19.75,25.51,28.79,14.66,46.73,1013.69,2043.97,2438.99,2091.00,2379.24,599.82,600.72,21.88,0000 0000 0000 0000 000000
2016-06-19 00:35:52,0.00,4.14,0.00,19.81,25.53,28.78,14.58,46.66,1013.67,2043.94,2438.76,2090.99,2379.01,599.37,600.19,21.93,0000 0000 0000 0000 000000
2016-06-19 00:40:53,-0.02,4.14,0.00,19.83,25.56,28.78,14.68,46.59,1013.62,2043.61,2438.10,2090.91,2379.00,600.10,600.83,21.98,0000 0000 0000 0000 000000
2016-06-19 00:45:54,0.02,4.14,0.00,19.85,25.59,28.79,14.70,46.79,1013.40,2043.34,2437.99,2090.35,2378.79,599.71,600.26,22.03,0000 0000 0000 0000 000000
2016-06-19 00:50:55,-0.01,4.14,0.00,19.89,25.62,28.89,14.77,46.85,1013.34,2043.04,2437.94,2090.04,2378.16,600.16,600.58,22.08,0000 0000 0000 0000 000000
2016-06-19 00:55:57,0.02,4.14,0.00,19.93,25.65,28.91,14.76,46.78,1013.28,2043.02,2437.26,2090.00,2378.00,599.83,600.14,22.13,0000 0000 0000 0000 000000
2016-06-19 01:00:58,0.00,4.14,0.00,19.96,25.68,28.92,14.69,46.62,1013.23,2043.00,2436.99,2089.94,2377.94,600.24,600.52,22.18,0000 0000 0000 0000 000000
2016-06-19 01:05:59,0.05,4.15,0.00,19.99,25.71,28.91,14.75,46.73,1013.21,2043.00,2436.92,2089.45,2377.44,599.95,600.20,22.23,0000 0000 0000 0000 000000
2016-06-19 01:11:00,0.03,4.15,0.00,20.04,25.74,29.02,14.62,46.40,1013.20,2042.99,2436.26,2089.03,2377.03,599.73,599.79,22.28,0000 0000 0000 0000 000000
2016-06-19 01:16:02,0.00,4.15,0.00,20.08,25.77,28.98,14.67,46.67,1013.20,2042.97,2436.00,2089.00,2377.00,600.03,599.98,22.33,0000 0000 0000 0000 000000
2016-06-19 01:21:03,-0.01,4.15,0.00,20.11,25.81,29.11,14.71,46.74,1013.20,2042.72,2435.85,2088.96,2376.70,599.90,599.80,22.38,0000 0000 0000 0000 000000
2016-06-19 01:26:04,-0.00,4.15,0.00,20.13,25.84,29.01,14.83,46.90,1013.20,2042.24,2435.24,2088.45,2376.07,600.44,600.14,22.43,0000 0000 0000 0000 000000
2016-06-19 01:31:05,0.00,4.15,0.00,20.16,25.88,29.09,14.64,46.56,1013.20,2042.01,2435.04,2088.02,2375.99,599.62,599.40,22.48,0000 0000 0000 0000 000000
2016-06-19 01:36:07,0.03,4.15,0.00,20.21,25.92,29.01,14.69,46.67,1013.19,2042.00,2434.69,2087.99,2375.63,599.89,599.56,22.53,0000 0000 0000 0000 000000
2016-06-19 01:41:09,0.04,4.15,0.00,20.26,25.96,29.10,14.70,46.72,1013.13,2042.00,2434.02,2087.69,2375.03,599.78,599.39,22.58,0000 0000 0000 0000 000000
2016-06-19 01:46:10,0.02,4.15,0.00,20.31,26.00,29.04,14.59,46.44,1013.04,2041.96,2433.96,2087.08,2374.97,599.70,599.10,22.63,0000 0000 0000 0000 000000
2016-06-19 01:51:11,0.03,4.15,0.00,20.37,26.04,29.12,14.66,46.63,1012.83,2041.89,2433.35,2087.00,2374.53,600.11,599.25,22.68,0000 0000 0000 0000 000000
2016-06-19 01:56:12,-0.05,4.15,0.00,20.43,26.08,29.17,14.69,46.70,1012.87,2041.43,2433.00,2086.95,2374.02,600.02,599.03,22.73,0000 0000 0000 0000 000000
2016-06-19 02:01:13,0.01,4.15,0.00,20.49,26.11,29.19,14.65,46.72,1012.78,2041.07,2432.88,2086.40,2373.99,599.94,598.70,22.78,0000 0000 0000 0000 000000
2016-06-19 02:06:15,0.04,4.15,0.00,20.55,26.15,29.20,14.73,46.72,1012.75,2041.00,2432.16,2086.01,2373.60,600.11,598.87,22.84,0000 0000 0000 0000 000000
2016-06-19 02:11:16,0.01,4.16,0.00,20.58,26.19,29.23,14.58,46.70,1012.73,2041.00,2432.00,2086.00,2373.04,599.71,598.27,22.89,0000 0000 0000 0000 000000
2016-06-19 02:16:17,0.01,4.16,0.00,20.61,26.23,29.28,14.68,46.62,1012.73,2040.98,2431.90,2085.92,2373.00,600.16,598.68,22.94,0000 0000 0000 0000 000000
2016-06-19 02:21:18,0.05,4.16,0.00,20.65,26.26,29.34,14.70,46.81,1012.73,2040.90,2431.12,2085.24,2372.75,600.28,598.72,22.99,0000 0000 0000 0000 000000
2016-06-19 02:26:19,-0.03,4.16,0.00,20.69,26.30,29.32,14.59,46.70,1012.72,2040.49,2431.00,2085.02,2372.10,599.38,598.04,23.04,0000 0000 0000 0000 000000
2016-06-19 02:31:20,-0.03,4.16,0.00,20.74,26.33,29.43,14.66,46.65,1012.71,2040.06,2430.82,2084.99,2371.99,600.35,598.66,23.09,0000 0000 0000 0000 000000
2016-06-19 02:36:22,0.04,4.16,0.00,20.76,26.37,29.46,14.70,46.63,1012.71,2040.00,2430.09,2084.76,2371.70,600.15,598.51,23.14,0000 0000 0000 0000 000000
2016-06-19 02:41:23,0.03,4.16,0.00,20.81,26.40,29.53,14.62,46.45,1012.72,2040.00,2429.98,2084.14,2371.07,600.46,598.54,23.19,0000 0000 0000 0000 000000
2016-06-19 02:46:25,0.01,4.16,0.00,20.88,26.44,29.58,14.66,46.53,1012.71,2039.98,2429.66,2084.01,2371.00,599.95,598.02,23.24,0000 0000 0000 0000 000000
2016-06-19 02:51:26,0.01,4.16,0.00,20.91,26.48,29.60,14.63,46.83,1012.71,2039.93,2429.03,2083.99,2370.90,600.22,598.23,23.29,0000 0000 0000 0000 000000
2016-06-19 02:56:27,0.02,4.16,0.00,21.52,26.52,29.71,14.57,46.48,1012.70,2039.75,2428.94,2083.56,2370.18,600.36,597.03,23.34,0000 0000 0000 0000 000000
2016-06-19 03:01:29,-0.03,4.16,0.00,22.55,26.57,29.80,14.47,46.17,1012.71,2039.16,2428.33,2083.03,2370.00,600.10,594.79,23.39,0000 0000 0000 0000 000000
2016-06-19 03:06:30,0.01,4.16,0.00,22.98,26.64,29.63,14.47,46.06,1012.71,2039.01,2428.02,2082.99,2369.66,600.04,593.82,23.44,0000 0000 0000 0000 000000
2016-06-19 03:11:31,0.04,4.16,0.00,23.23,26.71,29.61,14.47,45.86,1012.71,2038.93,2427.84,2082.45,2369.02,600.30,593.59,23.49,0000 0000 0000 0000 000000
2016-06-19 03:16:32,-0.04,4.16,0.00,23.28,26.79,29.69,14.35,45.87,1012.71,2038.26,2427.08,2082.00,2368.51,599.87,592.99,23.54,0000 0000 0000 0000 000000
2016-06-19 03:21:33,0.05,4.16,0.00,23.43,26.88,29.77,14.43,45.92,1012.71,2038.00,2426.59,2081.45,2367.94,600.00,592.89,23.59,0000 0000 0000 0000 000000
2016-06-19 03:26:35,0.01,4.17,0.00,23.52,26.97,29.87,14.35,45.83,1012.71,2037.83,2425.99,2081.00,2367.14,600.16,592.66,23.64,0000 0000 0000 0000 000000
2016-06-19 03:31:36,-0.01,4.16,0.00,23.60,27.05,29.97,14.34,45.81,1012.71,2037.08,2425.19,2080.43,2366.93,600.00,592.51,23.69,0000 0000 0000 0000 000000
2016-06-19 03:36:37,0.04,4.17,0.00,23.62,27.14,30.06,14.45,46.02,1012.70,2036.99,2424.74,2079.99,2366.13,600.02,592.51,23.74,0000 0000 0000 0000 000000
2016-06-19 03:41:38,0.01,4.17,0.00,23.64,27.23,30.14,14.39,45.88,1012.67,2036.71,2424.04,2079.47,2365.81,599.87,592.32,23.79,0000 0000 0000 0000 000000
2016-06-19 03:46:40,-0.01,4.17,0.00,23.70,27.31,30.21,14.31,45.77,1012.67,2036.06,2423.40,2079.00,2365.04,599.74,592.24,23.84,0000 0000 0000 0000 000000
2016-06-19 03:51:41,0.05,4.17,0.00,23.77,27.39,30.28,14.30,45.86,1012.67,2035.99,2422.93,2078.41,2364.52,599.82,591.99,23.89,0000 0000 0000 0000 000000
2016-06-19 03:56:42,-0.05,4.17,0.00,23.82,27.48,30.35,14.45,45.92,1012.59,2035.40,2422.11,2078.00,2363.98,600.27,592.28,23.94,0000 0000 0000 0000 000000
2016-06-19 04:01:44,0.05,4.17,0.00,23.88,27.55,30.41,14.40,45.89,1012.52,2035.01,2421.78,2077.52,2363.31,600.10,591.92,23.99,0000 0000 0000 0000 000000
2016-06-19 04:06:45,0.02,4.17,0.00,23.91,27.63,30.46,14.39,45.92,1012.45,2034.98,2421.03,2077.02,2362.96,600.36,592.06,24.04,0000 0000 0000 0000 000000
2016-06-19 04:11:47,-0.01,4.17,0.00,23.92,27.70,30.52,14.35,45.90,1012.32,2034.37,2420.37,2076.67,2362.15,600.13,591.82,24.09,0000 0000 0000 0000 000000
2016-06-19 04:16:48,0.01,4.17,0.00,23.99,27.77,30.56,14.29,45.62,1012.24,2034.01,2419.95,2076.03,2361.83,599.87,591.29,24.14,0000 0000 0000 0000 000000
2016-06-19 04:21:49,0.05,4.17,0.00,24.03,27.83,30.62,14.38,45.83,1012.24,2033.99,2419.18,2075.88,2361.08,600.16,591.68,24.19,0000 0000 0000 0000 000000
2016-06-19 04:26:51,-0.02,4.18,0.00,24.06,27.90,30.67,14.38,45.77,1012.24,2033.64,2418.93,2075.13,2360.92,600.34,591.63,24.24,0000 0000 0000 0000 000000
2016-06-19 04:31:52,-0.00,4.17,0.00,24.08,27.95,30.69,14.36,45.90,1012.23,2033.08,2418.19,2074.99,2360.14,599.96,591.27,24.29,0000 0000 0000 0000 000000
2016-06-19 04:36:53,0.04,4.17,0.00,24.11,28.01,30.73,14.35,45.92,1012.22,2033.00,2417.78,2074.50,2359.96,600.00,591.25,24.34,0000 0000 0000 0000 000000
2016-06-19 04:41:55,0.04,4.18,0.00,24.18,28.06,30.78,14.35,45.68,1012.23,2032.99,2417.05,2074.02,2359.29,600.18,591.35,24.39,0000 0000 0000 0000 000000
2016-06-19 04:46:56,-0.01,4.18,0.00,24.23,28.11,30.81,14.35,45.78,1012.22,2032.76,2416.79,2073.93,2359.00,599.91,590.99,24.44,0000 0000 0000 0000 000000
2016-06-19 04:51:57,-0.01,4.18,0.00,24.23,28.15,30.85,14.31,45.52,1012.22,2032.16,2416.13,2073.31,2358.60,599.76,590.83,24.49,0000 0000 0000 0000 000000
2016-06-19 04:56:58,0.01,4.18,0.00,24.29,28.18,30.88,14.27,45.67,1012.22,2032.01,2415.95,2073.01,2358.04,600.00,590.93,24.54,0000 0000 0000 0000 000000
2016-06-19 05:02:00,0.02,4.18,0.00,24.27,28.22,30.91,14.50,46.07,1012.21,2032.00,2415.25,2072.97,2357.97,600.44,591.33,24.59,0000 0000 0000 0000 000000
2016-06-19 05:07:01,0.05,4.18,0.00,24.32,28.26,30.94,14.31,45.75,1012.14,2031.99,2415.00,2072.47,2357.38,599.90,590.77,24.64,0000 0000 0000 0000 000000
2016-06-19 05:12:02,0.02,4.18,0.00,24.34,28.30,30.95,14.35,45.75,1011.92,2031.93,2414.57,2072.02,2357.00,600.33,590.97,24.69,0000 0000 0000 0000 000000
2016-06-19 05:17:03,-0.03,4.18,0.00,24.37,28.33,30.98,14.23,45.61,1011.79,2031.62,2414.01,2071.99,2356.86,600.08,590.49,24.74,0000 0000 0000 0000 000000
2016-06-19 05:22:04,-0.02,4.18,0.00,24.40,28.36,30.99,14.34,45.49,1011.75,2031.13,2413.94,2071.82,2356.14,600.38,590.69,24.79,0000 0000 0000 0000 000000
2016-06-19 05:27:06,0.05,4.18,0.00,24.42,28.39,31.02,14.34,45.58,1011.75,2031.03,2413.14,2071.15,2356.00,600.05,590.41,24.84,0000 0000 0000 0000 000000
2016-06-19 05:32:07,0.00,4.18,0.00,24.45,28.42,31.03,14.30,45.73,1011.74,2031.00,2412.99,2071.00,2355.93,599.98,590.25,24.89,0000 0000 0000 0000 000000
2016-06-19 05:37:09,0.04,4.19,0.00,24.49,28.45,31.06,14.29,45.61,1011.73,2030.99,2412.44,2070.98,2355.21,599.98,590.02,24.94,0000 0000 0000 0000 000000
2016-06-19 05:42:10,0.02,4.19,0.00,24.50,28.47,31.08,14.25,45.49,1011.73,2030.99,2412.00,2070.61,2355.00,600.01,590.20,24.99,0000 0000 0000 0000 000000
2016-06-19 05:47:12,0.02,4.19,0.00,24.52,28.50,31.11,14.30,45.69,1011.73,2030.85,2411.65,2070.04,2354.90,600.09,590.23,25.04,0000 0000 0000 0000 000000
2016-06-19 05:52:13,0.00,4.19,0.00,24.56,28.52,31.13,14.29,45.68,1011.73,2030.61,2411.05,2070.00,2354.28,599.62,589.72,25.09,0000 0000 0000 0000 000000
2016-06-19 05:57:15,-0.04,4.19,0.00,24.58,28.55,31.15,14.33,45.58,1011.73,2030.10,2410.96,2069.88,2354.01,600.62,590.78,25.14,0000 0000 0000 0000 000000
2016-06-19 06:02:16,0.05,4.19,0.00,24.60,28.57,31.17,14.38,45.75,1011.73,2030.06,2410.30,2069.25,2353.97,599.83,589.86,25.19,0000 0000 0000 0000 000000
2016-06-19 06:07:17,0.01,4.19,0.00,24.60,28.59,31.19,14.38,45.83,1011.73,2030.02,2410.01,2069.04,2353.65,600.01,589.98,25.24,0000 0000 0000 0000 000000
2016-06-19 06:12:18,0.01,4.19,0.00,24.62,28.61,31.21,14.25,45.58,1011.74,2030.00,2409.99,2069.00,2353.08,600.09,590.03,25.29,0000 0000 0000 0000 000000
2016-06-19 06:17:20,0.01,4.19,0.00,24.63,28.62,31.22,14.34,45.73,1011.75,2030.00,2409.77,2068.99,2353.00,599.81,589.75,25.34,0000 0000 0000 0000 000000
2016-06-19 06:22:21,0.01,4.19,0.00,24.64,28.65,31.24,14.23,45.77,1011.92,2030.00,2409.08,2068.95,2353.00,600.12,590.13,25.39,0000 0000 0000 0000 000000
2016-06-19 06:27:22,0.03,4.19,0.00,24.65,28.66,31.25,14.30,45.58,1012.12,2029.98,2409.00,2068.47,2352.88,600.30,590.41,25.44,0000 0000 0000 0000 000000
2016-06-19 06:32:23,0.03,4.20,0.00,24.67,28.67,31.27,14.35,45.53,1012.19,2029.98,2408.94,2068.10,2352.32,600.09,590.21,25.49,0000 0000 0000 0000 000000
2016-06-19 06:37:24,0.02,4.20,0.00,24.68,28.69,31.28,14.27,45.63,1012.22,2029.93,2408.24,2068.00,2352.01,600.19,590.33,25.54,0000 0000 0000 0000 000000
2016-06-19 06:42:26,-0.00,4.20,0.00,24.70,28.70,31.29,14.32,45.63,1012.22,2029.83,2407.97,2067.98,2352.00,599.84,589.92,25.59,0000 0000 0000 0000 000000
2016-06-19 06:47:27,0.01,4.20,0.00,24.71,28.71,31.32,14.31,45.43,1012.22,2029.64,2407.48,2067.80,2351.80,599.74,589.73,25.64,0000 0000 0000 0000 000000
2016-06-19 06:52:28,0.02,4.20,0.00,24.70,28.72,31.33,14.34,45.52,1012.22,2029.35,2407.02,2067.34,2351.27,599.93,590.00,25.69,0000 0000 0000 0000 000000
2016-06-19 06:57:29,-0.01,4.20,0.00,24.70,28.72,31.35,14.29,45.48,1012.22,2029.20,2407.00,2067.03,2351.02,599.77,589.84,25.75,0000 0000 0000 0000 000000
2016-06-19 07:02:30,-0.00,4.20,0.00,24.71,28.73,31.36,14.27,45.44,1012.22,2029.05,2406.86,2067.00,2351.00,600.08,590.17,25.80,0000 0000 0000 0000 000000
2016-06-19 07:07:31,0.01,4.20,0.00,24.71,28.74,31.37,14.32,45.34,1012.23,2029.01,2406.23,2067.00,2350.98,599.89,589.96,25.85,0000 0000 0000 0000 000000
2016-06-19 07:12:33,0.00,4.20,0.00,24.72,28.75,31.38,14.28,45.48,1012.26,2029.01,2406.02,2066.99,2350.96,599.86,589.88,25.90,0000 0000 0000 0000 000000
2016-06-19 07:17:34,0.01,4.20,0.00,24.72,28.75,31.38,14.28,45.32,1012.31,2029.01,2405.99,2066.97,2350.59,600.02,590.14,25.95,0000 0000 0000 0000 000000
2016-06-19 07:22:35,0.01,4.20,0.00,24.74,28.75,31.37,14.34,45.51,1012.38,2029.02,2405.96,2066.96,2350.27,600.00,590.10,26.00,0000 0000 0000 0000 000000
2016-06-19 07:27:36,0.03,4.20,0.00,24.74,28.75,31.38,14.27,45.57,1012.37,2029.01,2405.50,2066.68,2350.05,599.83,589.84,26.05,0000 0000 0000 0000 000000
2016-06-19 07:32:38,0.03,4.20,0.00,24.74,28.75,31.39,14.23,45.42,1012.51,2029.00,2405.06,2066.25,2350.00,599.81,590.02,26.10,0000 0000 0000 0000 000000
2016-06-19 07:37:39,0.00,4.20,0.00,24.75,28.75,31.38,14.33,45.48,1012.59,2029.01,2405.00,2066.08,2350.00,599.86,590.02,26.15,0000 0000 0000 0000 000000
2016-06-19 07:42:40,0.01,4.20,0.00,24.75,28.75,31.39,14.33,45.52,1012.67,2029.02,2404.85,2066.02,2350.00,599.63,589.88,26.20,0000 0000 0000 0000 000000
2016-06-19 07:47:42,0.02,4.21,0.00,24.74,28.75,31.40,14.29,45.39,1012.70,2029.04,2404.15,2066.00,2349.97,599.86,590.13,26.25,0000 0000 0000 0000 000000
2016-06-19 07:52:43,0.00,4.21,0.00,24.74,28.75,31.39,14.30,45.35,1012.71,2029.06,2404.01,2066.00,2349.87,600.37,590.47,26.30,0000 0000 0000 0000 000000
2016-06-19 07:57:45,0.01,4.21,0.00,24.73,28.74,31.38,14.24,45.38,1012.71,2029.05,2404.00,2065.98,2349.24,599.49,589.83,26.35,0000 0000 0000 0000 000000
2016-06-19 08:02:46,0.00,4.21,0.00,24.74,28.74,31.40,14.28,45.37,1012.71,2029.05,2403.97,2065.96,2349.06,599.76,590.04,26.40,0000 0000 0000 0000 000000
2016-06-19 08:07:47,0.02,4.21,0.00,24.75,28.73,31.39,14.37,45.54,1012.72,2029.06,2403.52,2065.81,2349.00,600.11,590.37,26.45,0000 0000 0000 0000 000000
2016-06-19 08:12:48,0.02,4.21,0.00,24.74,28.72,31.41,14.36,45.50,1012.72,2029.10,2403.14,2065.65,2349.00,600.28,590.52,26.50,0000 0000 0000 0000 000000
2016-06-19 08:17:50,0.02,4.21,0.00,24.74,28.72,31.38,14.27,45.46,1012.73,2029.09,2403.02,2065.21,2348.97,599.40,589.70,26.55,0000 0000 0000 0000 000000
2016-06-19 08:22:51,0.02,4.21,0.00,24.74,28.72,31.39,14.37,45.44,1012.73,2029.18,2402.99,2065.00,2348.84,600.18,590.47,26.60,0000 0000 0000 0000 000000
2016-06-19 08:27:52,0.00,4.21,0.00,24.75,28.72,31.39,14.32,45.56,1012.72,2029.20,2402.91,2065.00,2348.62,600.20,590.48,26.65,0000 0000 0000 0000 000000
2016-06-19 08:32:53,0.03,4.21,0.00,24.75,28.72,31.40,14.35,45.43,1012.73,2029.25,2402.54,2065.00,2348.29,599.97,590.24,26.70,0000 0000 0000 0000 000000
2016-06-19 08:37:54,0.07,4.22,0.00,24.73,28.72,31.40,14.34,45.33,1012.73,2029.27,2401.71,2064.54,2347.71,599.87,590.10,26.75,0000 0000 0000 0000 000000
2016-06-19 08:42:56,0.02,4.22,0.00,24.72,28.72,31.39,14.37,45.44,1012.74,2029.24,2401.09,2064.00,2347.12,600.26,590.48,26.80,0000 0000 0000 0000 000000
2016-06-19 08:47:57,0.03,4.22,0.00,24.72,28.72,31.41,14.36,45.57,1012.74,2029.39,2401.01,2064.00,2347.04,599.93,590.29,26.85,0000 0000 0000 0000 000000
2016-06-19 08:52:58,-0.02,4.22,0.00,24.72,28.71,31.39,14.41,45.48,1012.73,2029.39,2401.00,2064.00,2347.01,599.88,590.31,26.90,0000 0000 0000 0000 000000
2016-06-19 08:58:00,0.02,4.22,0.00,24.72,28.70,31.39,14.21,45.27,1012.74,2029.32,2400.97,2063.99,2347.00,599.72,590.21,26.95,0000 0000 0000 0000 000000
2016-06-19 09:03:01,0.01,4.22,0.00,24.72,28.70,31.39,14.25,45.13,1012.75,2029.37,2400.59,2063.97,2346.99,599.67,590.04,27.00,0000 0000 0000 0000 000000
2016-06-19 09:08:02,0.03,4.22,0.00,24.72,28.70,31.39,14.33,45.38,1012.78,2029.44,2400.08,2063.90,2346.96,599.88,590.32,27.05,0000 0000 0000 0000 000000
2016-06-19 09:13:04,0.04,4.22,0.00,24.70,28.70,31.38,14.25,45.39,1012.85,2029.47,2400.00,2063.52,2346.77,600.04,590.47,27.10,0000 0000 0000 0000 000000
2016-06-19 09:18:05,0.04,4.23,0.00,24.69,28.70,31.38,14.32,45.41,1012.75,2029.67,2399.89,2063.14,2346.28,600.19,590.47,27.15,0000 0000 0000 0000 000000
2016-06-19 09:23:06,0.03,4.23,0.00,24.67,28.70,31.38,14.30,45.54,1012.76,2029.68,2399.15,2063.01,2346.01,599.54,590.01,27.20,0000 0000 0000 0000 000000
2016-06-19 09:28:08,0.02,4.23,0.00,24.67,28.70,31.39,14.35,45.36,1012.80,2029.64,2398.80,2062.97,2345.86,600.11,590.43,27.25,0000 0000 0000 0000 000000
2016-06-19 09:33:08,0.04,4.23,0.00,24.66,28.70,31.38,14.30,45.45,1012.85,2029.59,2398.08,2062.66,2345.23,599.71,590.04,27.30,0000 0000 0000 0000 000000
2016-06-19 09:38:10,0.02,4.23,0.00,24.65,28.69,31.39,14.30,45.43,1012.90,2029.51,2397.88,2062.07,2345.01,600.17,590.58,27.35,0000 0000 0000 0000 000000
2016-06-19 09:43:11,0.01,4.23,0.00,24.64,28.68,31.37,14.41,45.46,1013.02,2029.39,2397.09,2062.00,2344.97,600.40,590.87,27.40,0000 0000 0000 0000 000000
2016-06-19 09:48:12,0.10,4.24,0.00,24.64,28.67,31.37,14.40,45.48,1012.97,2029.37,2396.10,2061.51,2344.11,600.28,590.76,27.45,0000 0000 0000 0000 000000
2016-06-19 09:53:14,0.13,4.24,0.00,24.63,28.67,31.37,14.29,45.44,1013.02,2029.53,2394.53,2060.50,2343.06,600.10,590.85,27.50,0000 0000 0000 0000 000000
2016-06-19 09:58:15,0.03,4.25,0.00,24.62,28.67,31.37,14.25,45.24,1013.00,2029.43,2393.92,2060.00,2342.43,599.42,590.08,27.55,0000 0000 0000 0000 000000
2016-06-19 10:03:16,0.03,4.25,0.00,24.60,28.67,31.38,14.32,45.23,1012.97,2029.49,2393.29,2059.99,2342.07,599.96,590.74,27.60,0000 0000 0000 0000 000000
2016-06-19 10:08:18,0.01,4.25,0.00,24.59,28.67,31.37,14.36,45.44,1013.02,2029.50,2393.02,2059.96,2342.01,599.84,590.60,27.65,0000 0000 0000 0000 000000
2016-06-19 10:13:19,0.02,4.25,0.00,24.58,28.66,31.36,14.31,45.42,1012.94,2029.62,2393.00,2059.88,2342.00,600.15,591.02,27.70,0000 0000 0000 0000 000000
2016-06-19 10:18:20,0.02,4.25,0.00,24.56,28.65,31.37,14.33,45.60,1013.01,2029.76,2392.98,2059.66,2342.00,600.20,591.01,27.75,0000 0000 0000 0000 000000
2016-06-19 10:23:21,0.03,4.25,0.00,24.57,28.65,31.36,14.34,45.32,1012.95,2029.87,2392.73,2059.28,2341.98,599.78,590.57,27.80,0000 0000 0000 0000 000000
2016-06-19 10:28:22,0.05,4.25,0.00,24.56,28.65,31.36,14.31,45.45,1012.88,2029.85,2391.98,2059.02,2341.37,599.98,590.77,27.85,0000 0000 0000 0000 000000
2016-06-19 10:33:24,0.13,4.26,0.00,24.55,28.65,31.36,14.31,45.42,1013.01,2029.92,2390.49,2058.38,2340.57,599.96,590.95,27.90,0000 0000 0000 0000 000000
2016-06-19 10:38:25,0.36,4.27,0.00,24.54,28.64,31.36,14.30,45.46,1012.94,2029.95,2386.20,2055.77,2337.72,599.39,590.13,27.95,0000 0000 0000 0000 000000
2016-06-19 10:43:26,0.54,4.30,0.00,24.52,28.63,31.35,14.35,45.32,1013.02,2029.97,2379.60,2051.57,2333.02,600.08,590.96,28.00,0000 0000 0000 0000 000000
2016-06-19 10:48:27,0.45,4.32,0.00,24.54,28.62,31.35,14.21,45.18,1013.18,2029.96,2373.43,2047.62,2328.64,599.99,590.99,28.05,0000 0000 0000 0000 000000
2016-06-19 10:53:29,0.52,4.35,0.00,24.52,28.62,31.35,14.37,45.35,1013.20,2029.98,2366.89,2043.73,2324.10,600.19,591.34,28.10,0000 0000 0000 0000 000000
2016-06-19 10:58:30,0.14,4.36,0.00,24.51,28.62,31.35,14.35,45.52,1013.20,2029.98,2363.78,2041.84,2321.94,600.08,591.19,28.15,0000 0000 0000 0000 000000
2016-06-19 11:03:31,0.10,4.37,0.00,24.49,28.61,31.34,14.33,45.35,1013.20,2029.98,2362.34,2040.96,2320.98,599.68,590.77,28.20,0000 0000 0000 0000 000000
2016-06-19 11:08:32,0.11,4.37,0.00,24.48,28.60,31.35,14.32,45.49,1013.20,2029.98,2360.85,2040.09,2320.03,599.80,590.89,28.25,0000 0000 0000 0000 000000
2016-06-19 11:13:34,0.10,4.38,0.00,24.47,28.60,31.34,14.37,45.39,1013.21,2029.98,2359.54,2039.43,2319.16,600.14,591.25,28.30,0000 0000 0000 0000 000000
2016-06-19 11:18:35,0.21,4.39,0.00,24.46,28.60,31.34,14.24,45.04,1013.24,2029.97,2357.09,2037.80,2317.51,599.94,590.98,28.35,0000 0000 0000 0000 000000
2016-06-19 11:23:36,0.18,4.40,0.00,24.44,28.59,31.33,14.37,45.44,1013.25,2029.99,2354.51,2036.28,2315.72,599.77,590.85,28.40,0000 0000 0000 0000 000000
2016-06-19 11:28:38,0.06,4.40,0.00,24.43,28.57,31.32,14.36,45.26,1013.25,2029.99,2353.33,2035.70,2315.00,600.05,591.33,28.45,0000 0000 0000 0000 000000
2016-06-19 11:33:39,0.05,4.41,0.00,24.42,28.57,31.33,14.38,45.42,1013.26,2029.99,2352.87,2035.04,2314.47,600.34,591.71,28.50,0000 0000 0000 0000 000000
2016-06-19 11:38:41,0.12,4.41,0.00,24.42,28.57,31.32,14.48,45.33,1013.29,2029.99,2351.58,2034.43,2313.55,600.29,591.63,28.56,0000 0000 0000 0000 000000
2016-06-19 11:43:42,0.06,4.41,0.00,24.40,28.57,31.32,14.37,45.52,1013.31,2029.99,2350.42,2033.80,2312.85,600.19,591.46,28.61,0000 0000 0000 0000 000000
2016-06-19 11:48:43,0.08,4.42,0.00,24.39,28.56,31.32,14.37,45.40,1013.28,2029.99,2349.02,2033.01,2312.01,600.01,591.35,28.66,0000 0000 0000 0000 000000
2016-06-19 11:53:44,0.14,4.43,0.00,24.37,28.55,31.31,14.48,45.62,1013.34,2029.99,2347.47,2032.08,2310.80,600.56,591.76,28.71,0000 0000 0000 0000 000000
2016-06-19 11:58:45,0.11,4.43,0.00,24.37,28.55,31.31,14.42,45.31,1013.32,2029.99,2345.82,2031.04,2309.70,599.87,591.25,28.76,0000 0000 0000 0000 000000
2016-06-19 12:03:47,0.19,4.44,0.00,24.36,28.55,31.31,14.35,45.20,1013.35,2029.99,2343.70,2029.73,2308.27,600.01,591.48,28.81,0000 0000 0000 0000 000000
2016-06-19 12:08:48,0.18,4.45,0.00,24.34,28.54,31.28,14.46,45.78,1013.42,2029.99,2341.14,2028.40,2306.66,600.39,591.76,28.86,0000 0000 0000 0000 000000
2016-06-19 12:13:49,0.14,4.46,0.00,24.32,28.52,31.29,14.41,45.68,1013.46,2029.99,2338.99,2027.15,2305.35,600.04,591.68,28.91,0000 0000 0000 0000 000000
2016-06-19 12:18:50,0.19,4.47,0.00,24.32,28.52,31.28,14.28,45.38,1013.60,2030.00,2336.59,2025.82,2303.90,599.93,591.55,28.96,0000 0000 0000 0000 000000
2016-06-19 12:23:51,0.18,4.48,0.00,24.30,28.52,31.27,14.33,45.52,1013.66,2030.00,2333.93,2024.39,2302.43,600.26,591.96,29.01,0000 0000 0000 0000 000000
2016-06-19 12:28:53,0.11,4.48,0.00,24.29,28.51,31.27,14.38,45.45,1013.69,2030.00,2332.10,2023.24,2301.16,600.17,591.93,29.06,0000 0000 0000 0000 000000
2016-06-19 12:33:54,0.03,4.49,0.00,24.26,28.50,31.27,14.42,45.56,1013.69,2030.00,2331.60,2023.01,2301.00,600.24,592.04,29.11,0000 0000 0000 0000 000000
2016-06-19 12:38:55,0.12,4.49,0.00,24.27,28.50,31.25,14.34,45.32,1013.68,2030.00,2330.12,2022.39,2300.10,599.64,591.38,29.16,0000 0000 0000 0000 000000
2016-06-19 12:43:56,0.21,4.50,0.00,24.27,28.50,31.26,14.46,45.48,1013.69,2030.02,2327.53,2020.78,2298.43,600.33,592.10,29.21,0000 0000 0000 0000 000000
2016-06-19 12:48:58,0.19,4.51,0.00,24.25,28.50,31.26,14.33,45.48,1013.69,2030.03,2324.86,2019.24,2296.63,599.96,591.62,29.26,0000 0000 0000 0000 000000
2016-06-19 12:53:59,0.09,4.52,0.00,24.23,28.48,31.25,14.41,45.54,1013.69,2030.03,2323.29,2018.11,2295.78,599.90,591.72,29.31,0000 0000 0000 0000 000000